[[{"header":{"parameterUnit":"m.s-1","parameterCategory":1,"la1":30.2991,"la2":30.254,"lo1":-89.0895,"lo2":-89.0444,"dy":0.0017,"dx":0.0017,"nx":28,"ny":28,"refTime":"2025-02-07T03:00:00:Z","depth":0,"parameterNumber":2,"parameterNumberName":"U-component_of_WINDS"},"data":[0,0,0,0,0,0,0,0,0,0,0,0,0,0,0,0,0,0,0,0,0,0,0,0,0,0,0,0,0,0,0,0,0,0,0,0,0,0,0,0,0,0,0,0,0,0,0,0,0,0,0,0,0,0,0,0,0,0,-0.9869,-0.9869,0,-0.9892,-0.9892,-0.9892,-0.9881,-0.9881,-0.988,-0.9879,-0.9904,-0.9906,-0.9907,0,0,0,0,0,0,0,0,0,0,0,0,0,-0.9817,-0.9818,-0.9869,-0.9869,-0.987,-0.9892,-0.9892,-0.9893,-0.9881,-0.9881,-0.988,-0.9879,-0.9904,-0.9905,-0.9907,0,0,0,0,0,0,0,0,0,0,0,0,0,-0.984,-0.9819,-0.9869,-0.9867,-0.9867,-0.9892,-0.9892,-0.9893,-0.9881,-0.9881,-0.988,-0.9879,-0.9904,-0.9905,-0.9907,-0.9936,0,0,-0.9913,-0.9914,0,0,0,0,0,0,0,0,-0.9839,-0.9842,-0.9867,-0.9867,-0.9867,-0.9883,-0.9883,-0.9907,-0.9882,-0.9876,-0.9879,-0.9878,-0.9898,-0.99,-0.9907,-0.9938,-0.9939,-0.9913,-0.9914,-0.9915,-0.9915,0,0,0,0,0,0,0,-0.9837,-0.9841,-0.9878,-0.9867,-0.9867,-0.9865,-0.9867,-0.9888,-0.9892,-0.9876,-0.9876,-0.9878,-0.9898,-0.9905,-0.9907,-0.9939,-0.9913,-0.9914,-0.9916,-0.9916,-0.9996,-0.9997,0,0,0,0,0,0,-0.9835,-0.984,-0.9877,-0.9879,-0.985,-0.9867,-0.9869,-0.9879,-0.9891,-0.9893,-0.9879,-0.9878,-0.9902,-0.9905,-0.9908,-0.9943,-0.9915,-0.9916,-0.9918,-0.9995,-0.9996,-0.9997,0,0,0,0,0,0,-0.9834,-0.9839,-0.9876,-0.9859,-0.9864,-0.9868,-0.9879,-0.988,-0.9886,-0.9894,-0.9894,-0.9885,-0.9902,-0.9905,-0.9929,-0.9944,-0.9917,-0.9919,-0.9993,-0.9995,-0.9996,-1.0013,0,0,0,0,0,0,-0.9833,-0.9839,-0.9849,-0.9859,-0.9865,-0.9897,-0.988,-0.9881,-0.9889,-0.9888,-0.99,-0.9901,-0.9901,-0.9927,-0.9931,-0.9946,-0.992,-0.9992,-0.9994,-0.9996,-1.0012,-1.0015,-1.0019,0,0,0,0,0,-0.9831,-0.9853,-0.985,-0.9854,-0.9878,-0.9898,-0.9901,-0.99,-0.9891,-0.9902,-0.9906,-0.99,-0.9942,-0.9929,-0.9934,-0.995,-0.9991,-0.9994,-0.9996,-1.001,-1.0015,-1.0018,0,0,0,0,0,0,-0.9845,-0.9855,-0.9851,-0.9877,-0.9887,-0.9896,-0.991,-0.9905,-0.9918,-0.9916,-0.9916,-0.9919,-0.9944,-0.9949,-0.9935,-0.9979,-0.9965,-0.9968,-0.9974,-0.9978,-0.9982,-0.998,-0.9922,0,0,0,0,0,-0.9852,-0.9866,-0.9874,-0.9896,-0.9901,-0.9905,-0.9913,-0.9912,-0.9922,-0.9927,-0.9933,-0.9944,-0.9959,-0.9969,-0.9984,-1.0013,-1.0015,-1.0026,-1.0029,-1.0032,-1.0035,-1.0051,-1.0055,-1.0004,-1.0004,-1.0004,0,0,-0.9864,-0.9871,-0.9881,-0.9899,-0.9907,-0.9922,-0.9908,-0.9926,-0.9937,-0.9929,-0.9952,-0.9958,-0.9969,-0.9996,-1.0008,-1.0001,-1.005,-1.0035,-1.0037,-1.0038,-1.0053,-1.0058,-1.0063,-1.0006,-1.0006,-1.0005,0,0,-0.9896,-0.9903,-0.9922,-0.993,-0.9941,-0.9943,-0.9948,-0.9958,-0.9961,-0.9984,-0.9978,-0.9993,-1.0019,-1.0028,-1.0036,-1.0071,-1.0066,-1.0076,-1.0094,-1.0109,-1.0113,-1.0117,-1.013,-1.0134,-1.0079,-1.0079,-1.0079,0,-0.9911,-0.9934,-0.9933,-0.995,-0.9959,-0.9952,-0.9972,-0.998,-0.9995,-1.0002,-0.9994,-1.0027,-1.0035,-1.0063,-1.0072,-1.0078,-1.0084,-1.0074,-1.0113,-1.0116,-1.012,-1.0132,-1.0137,-1.008,-1.008,-1.008,-1.008,0,-0.9951,-0.9967,-0.9982,-0.9996,-1.0007,-1.0025,-1.0028,-1.0038,-1.0037,-1.004,-1.0064,-1.0073,-1.0089,-1.0096,-1.0095,-1.0124,-1.012,-1.0113,-1.0099,-1.0126,-1.0137,-1.0142,-1.0082,-1.0081,-1.0081,-1.0081,0,0,-0.9992,-1.0006,-1.0011,-1.0018,-1.003,-1.0042,-1.0061,-1.0077,-1.0086,-1.0097,-1.0113,-1.0136,-1.0129,-1.0138,-1.0138,-1.0152,-1.0179,-1.0143,-1.0143,-1.0149,-1.0213,-1.0218,-1.0223,-1.0177,-1.0177,-1.0178,-1.0212,0,-1.0024,-1.0056,-1.0056,-1.0085,-1.01,-1.0095,-1.0111,-1.0121,-1.0125,-1.0138,-1.0143,-1.0159,-1.0149,-1.0155,-1.0168,-1.0173,-1.0192,-1.0171,-1.0192,-1.0192,-1.0188,-1.0229,-1.0235,-1.0266,-1.0216,-1.0217,-1.0218,0,-1.0065,-1.0077,-1.0108,-1.0118,-1.0125,-1.0139,-1.0154,-1.0167,-1.0178,-1.018,-1.019,-1.0188,-1.0208,-1.0194,-1.0221,-1.0207,-1.0216,-1.022,-1.0221,-1.0222,-1.0206,-1.0232,-1.0276,-1.0281,-1.0225,-1.0224,-1.0224,0,-1.0091,-1.0115,-1.0137,-1.0143,-1.0155,-1.0166,-1.0172,-1.0182,-1.0191,-1.0204,-1.021,-1.0226,-1.0234,-1.0246,-1.0249,-1.0238,-1.0276,-1.0262,-1.0279,-1.0279,-1.0287,-1.0286,-1.0333,-1.0293,-1.0293,-1.0293,-1.0293,0,-1.0127,-1.0146,-1.0149,-1.0162,-1.0184,-1.0184,-1.0206,-1.0211,-1.022,-1.0235,-1.0231,-1.0245,-1.0248,-1.0262,-1.0265,-1.0287,-1.0291,-1.0294,-1.0294,-1.0294,-1.0293,-1.0299,-1.0297,-1.0294,-1.0294,-1.0294,-1.0293,0,-1.0159,-1.0162,-1.0185,-1.0195,-1.0198,-1.0214,-1.0222,-1.0235,-1.0239,-1.0258,-1.0262,-1.0268,-1.0285,-1.0289,-1.031,-1.0311,-1.0338,-1.0336,-1.0334,-1.0334,-1.035,-1.0348,-1.0401,-1.0408,-1.0364,-1.0365,-1.0365,0,-1.0181,-1.0196,-1.0207,-1.0217,-1.0223,-1.0238,-1.0247,-1.0248,-1.0259,-1.0273,-1.0284,-1.0301,-1.0314,-1.0343,-1.0349,-1.0365,-1.0364,-1.0381,-1.0366,-1.0365,-1.0363,-1.0362,-1.0364,-1.0384,-1.0384,-1.0385,-1.0385,0,-1.0221,-1.0221,-1.0235,-1.0249,-1.026,-1.0271,-1.0282,-1.029,-1.0293,-1.0305,-1.0322,-1.0332,-1.0353,-1.037,-1.0386,-1.0393,-1.039,-1.039,-1.0395,-1.0394,-1.0392,-1.0393,-1.0341,-1.0389,-1.0388,-1.0388,-1.0388,-1.0388,-1.0248,-1.0261,-1.0271,-1.0286,-1.0294,-1.0305,-1.0317,-1.0322,-1.0337,-1.0353,-1.0353,-1.0372,-1.0384,-1.0405,-1.0413,-1.0428,-1.0423,-1.0429,-1.0431,-1.0433,-1.0434,-1.039,-1.0431,-1.0431,-1.0431,-1.0431,-1.0431,0,-1.0287,-1.0293,-1.0307,-1.0322,-1.0334,-1.033,-1.0341,-1.0352,-1.0369,-1.0379,-1.0392,-1.0413,-1.0429,-1.0437,-1.0454,-1.0464,-1.0463,-1.0469,-1.0468,-1.0469,-1.0438,-1.0432,-1.0469,-1.0469,-1.0469,-1.0469,-1.0469,-1.0469,-1.0309,-1.033,-1.0332,-1.0357,-1.0363,-1.0381,-1.0388,-1.0398,-1.0406,-1.0429,-1.0442,-1.0447,-1.0457,-1.0474,-1.0489,-1.0491,-1.0498,-1.0504,-1.0505,-1.0475,-1.0471,-1.0468,-1.0462,-1.0505,-1.0505,-1.0535,-1.0535,-1.0536]},{"header":{"parameterUnit":"m.s-1","parameterCategory":1,"la1":30.2991,"la2":30.254,"lo1":-89.0895,"lo2":-89.0444,"dy":0.0017,"dx":0.0017,"nx":28,"ny":28,"refTime":"2025-02-07T03:00:00:Z","depth":0,"parameterNumber":3,"parameterNumberName":"V-component_of_WINDS"},"data":[0,0,0,0,0,0,0,0,0,0,0,0,0,0,0,0,0,0,0,0,0,0,0,0,0,0,0,0,0,0,0,0,0,0,0,0,0,0,0,0,0,0,0,0,0,0,0,0,0,0,0,0,0,0,0,0,0,0,0.0871,0.0872,0,0.0959,0.096,0.0961,0.1033,0.1034,0.1034,0.1035,0.1129,0.1131,0.1132,0,0,0,0,0,0,0,0,0,0,0,0,0,0.0768,0.0769,0.0871,0.0872,0.0873,0.0959,0.096,0.0961,0.1033,0.1034,0.1034,0.1035,0.1128,0.113,0.1133,0,0,0,0,0,0,0,0,0,0,0,0,0,0.083,0.077,0.087,0.0919,0.0924,0.0959,0.096,0.0962,0.1032,0.1034,0.1035,0.1036,0.1127,0.113,0.1133,0.1128,0,0,0.1141,0.1142,0,0,0,0,0,0,0,0,0.0826,0.0834,0.091,0.0915,0.0921,0.0986,0.0958,0.1018,0.1032,0.0991,0.1035,0.1036,0.1081,0.1087,0.1102,0.1132,0.1136,0.1141,0.1143,0.1144,0.1145,0,0,0,0,0,0,0,0.0822,0.083,0.0906,0.0912,0.0918,0.0937,0.0947,0.097,0.1029,0.0995,0.1,0.101,0.1084,0.1099,0.1104,0.1138,0.1141,0.1144,0.1145,0.1147,0.1171,0.117,0,0,0,0,0,0,0.0809,0.0826,0.0903,0.0908,0.0875,0.0938,0.0949,0.0964,0.1029,0.104,0.1009,0.1013,0.1094,0.1101,0.1108,0.1108,0.1144,0.1147,0.1148,0.1172,0.1171,0.117,0,0,0,0,0,0,0.0807,0.0816,0.0899,0.0869,0.0881,0.0939,0.0955,0.0965,0.098,0.1039,0.105,0.1013,0.1095,0.1104,0.1123,0.1112,0.1148,0.1151,0.1173,0.1171,0.117,0.1106,0,0,0,0,0,0,0.0804,0.0814,0.0812,0.0868,0.0882,0.0911,0.0954,0.0966,0.0984,0.0991,0.1046,0.1056,0.1096,0.1118,0.1125,0.1116,0.1153,0.1174,0.1172,0.1171,0.1109,0.1102,0.1096,0,0,0,0,0,0.08,0.0791,0.0811,0.082,0.088,0.091,0.0919,0.0964,0.0983,0.0982,0.102,0.1055,0.1112,0.1119,0.1128,0.112,0.1175,0.1173,0.1171,0.1112,0.1104,0.1097,0,0,0,0,0,0,0.0733,0.0799,0.0823,0.0831,0.0864,0.0922,0.0922,0.0953,0.0982,0.0987,0.1043,0.1055,0.1068,0.1096,0.1103,0.1119,0.1148,0.1147,0.11,0.1093,0.1087,0.108,0.1155,0,0,0,0,0,0.0719,0.0736,0.0794,0.0796,0.0811,0.0863,0.0878,0.091,0.0948,0.0962,0.1002,0.1037,0.1064,0.108,0.1107,0.1114,0.1128,0.1112,0.1106,0.11,0.1099,0.1107,0.1101,0.1162,0.1162,0.1162,0,0,0.069,0.0729,0.0737,0.0783,0.0813,0.0831,0.0875,0.0892,0.0907,0.0965,0.0985,0.1015,0.1059,0.1072,0.1079,0.1096,0.1086,0.1097,0.1093,0.1095,0.1104,0.1098,0.1092,0.1161,0.1161,0.1161,0,0,0.0648,0.0678,0.0684,0.0713,0.0757,0.0792,0.0793,0.0846,0.0868,0.0889,0.0933,0.0952,0.0996,0.1026,0.1047,0.1017,0.105,0.1024,0.0991,0.0997,0.0993,0.0989,0.0979,0.0975,0.1023,0.1023,0.1023,0,0.0608,0.0636,0.0683,0.0698,0.0718,0.0771,0.0778,0.0804,0.0855,0.0868,0.0885,0.0942,0.0975,0.0996,0.0989,0.1003,0.1008,0.1018,0.0989,0.0986,0.0983,0.0974,0.0971,0.1019,0.102,0.102,0.102,0,0.0585,0.0604,0.0604,0.0651,0.0671,0.0681,0.0732,0.0746,0.0777,0.081,0.0832,0.0873,0.0911,0.0918,0.0948,0.0944,0.0953,0.0978,0.1009,0.0973,0.0966,0.0963,0.1015,0.1016,0.1017,0.1018,0,0,0.0503,0.0576,0.0576,0.0598,0.0651,0.0667,0.0681,0.0716,0.0729,0.0762,0.0777,0.0812,0.0837,0.0861,0.0895,0.09,0.0876,0.0926,0.0928,0.0916,0.0875,0.0856,0.0851,0.0898,0.0897,0.0897,0.0872,0,0.0471,0.0497,0.054,0.0554,0.0573,0.0624,0.0636,0.067,0.0702,0.0725,0.0761,0.0786,0.0816,0.083,0.0838,0.0877,0.0868,0.0879,0.0913,0.0914,0.0901,0.0848,0.0827,0.0802,0.087,0.0869,0.0869,0,0.0436,0.0466,0.048,0.0532,0.0542,0.0552,0.0589,0.0609,0.065,0.0673,0.0699,0.0736,0.0756,0.0782,0.0811,0.0817,0.0834,0.0855,0.0855,0.0861,0.0889,0.0853,0.0794,0.0791,0.0865,0.0865,0.0865,0,0.0376,0.042,0.0435,0.0453,0.0513,0.052,0.0545,0.0587,0.0606,0.0639,0.0652,0.0686,0.0706,0.0732,0.0779,0.0793,0.0802,0.0833,0.0824,0.0822,0.0824,0.0823,0.0768,0.0832,0.0832,0.0832,0.0833,0,0.0336,0.0343,0.0409,0.0418,0.0429,0.0479,0.0488,0.0519,0.0556,0.0573,0.0619,0.0635,0.0695,0.0718,0.0754,0.0773,0.0781,0.0801,0.0811,0.0798,0.0795,0.081,0.0813,0.0832,0.0832,0.0832,0.0832,0,0.0271,0.0315,0.0335,0.0391,0.0405,0.041,0.0459,0.0471,0.0506,0.0527,0.0535,0.059,0.062,0.0668,0.0712,0.0737,0.075,0.0765,0.0735,0.0741,0.073,0.0731,0.0683,0.068,0.0745,0.0744,0.0744,0,0.0242,0.0249,0.0306,0.032,0.0344,0.0366,0.0386,0.0436,0.0455,0.0502,0.0509,0.0542,0.0571,0.0616,0.0661,0.0696,0.0713,0.0694,0.0719,0.0706,0.0715,0.0714,0.0716,0.0689,0.0688,0.0687,0.0686,0,0.0188,0.0209,0.0235,0.0268,0.029,0.0319,0.035,0.036,0.0418,0.0437,0.0467,0.0489,0.0534,0.0567,0.0608,0.0637,0.0672,0.0678,0.0678,0.0665,0.0648,0.0658,0.0721,0.0679,0.068,0.068,0.0681,0.0681,0.0141,0.015,0.0191,0.0218,0.0247,0.0276,0.029,0.0326,0.0352,0.0391,0.042,0.0449,0.0491,0.0549,0.0576,0.0601,0.0616,0.0616,0.0616,0.0615,0.0611,0.0643,0.0608,0.0609,0.0609,0.0609,0.0609,0,0.009,0.0119,0.0143,0.0186,0.0207,0.0237,0.0274,0.029,0.0315,0.0351,0.0378,0.0414,0.0446,0.0494,0.053,0.0541,0.0558,0.0549,0.0549,0.0555,0.0594,0.0591,0.0534,0.0534,0.0534,0.0534,0.0534,0.0534,0.0066,0.0083,0.0109,0.0141,0.0171,0.0198,0.0217,0.0244,0.0273,0.0311,0.0337,0.0368,0.0409,0.0449,0.048,0.0494,0.0506,0.0492,0.051,0.0546,0.0553,0.0559,0.0557,0.0494,0.0493,0.047,0.0469,0.0469]}]]